星链-30057 (STARLINK-30057 )

导读 | 星芒AI

STARLINK-30057 是 SpaceX Starlink 卫星互联网项目中的一颗低轨卫星,属于第三代星链卫星(v1.5 或 v2 版本)。该卫星于 2023 年发射,旨在为全球提供高速、低延迟的宽带互联网服务。它运行在约 550 公里的轨道高度,采用先进的推进系统和激光通信技术,以提高网络效率和卫星间通信能力。STARLINK-30057 与其他星链卫星协同工作,扩大覆盖范围并增强服务稳定性,尤其在偏远和网络基础设施薄弱的地区发挥重要作用。

基本信息
目录编号:
55705
目录名称:
STARLINK-30057
国际标识:
2023-026L
轨道中心:
EARTH
卫星名称:
星链-30057
卫星全名:
星链-30057 (STARLINK-30057 )
卫星状态:
已陨落 最后检测时间 2024-07-25
发射日期:
2023-02-27 UTC
国别 :
美国 (US)
星等 :
--
轨道信息
数据来源 国际轨道数据
星历时间: 2024-07-24T16:09:15+0800
轨道信息已过期465天
半长轴: 6617.971km
偏心率: 0.0003405
轨道倾角: 42.988°
近地点辐角 288.479°
升交点赤经 73.549°
平近点角 71.573°
近地点: 237.582km
远地点: 242.09km
周期: 89.299分钟
每日圈数: 16.125588
详细信息
固有亮度:
5
最大亮度:
0.4
卫星平台:
Starlink v2.0 mini
覆盖范围:
全球
运营商:
太空探索技术公司
运营商所在国:
美国
制造商(研发单位):
太空探索技术公司
制造商所在国:
美国
使用方式:
暂无
卫星简介
星链(Starlink)计划是由太空探索技术公司(SpaceX)提出的一个巨型低轨卫星互联网星座项目,计划在2019年至2024年间在太空搭建由约1.2万颗卫星组成的“星链”网络,其中1584颗将部署在地球上空550千米处的近地轨道,并从2020年开始工作。该卫星仍在工作。